Location: Heidgraben
(53.7081°N, 9.6576°E)
Time: 21:00:12
(UTC+00:00)

BREEZE-M DEB (TANK) - Pass Details

Date: 05 July 2020
Orbit: 328 x 12048 km, 49.6° (Epoch: 14 August)

Event Time Altitude Azimuth Distance (km) Brightness Sun altitude
Rises 22:33:08 0° 277° (W) 3,743 6.6 -12.8°
Reaches altitude 10° 22:36:49 10° 266° (W) 1,974 5.0 -12.9°
Maximum altitude 22:40:00 26° 207° (SSW) 827 2.6 -13.0°
Enters shadow 22:40:28 25° 188° (S) 823 2.5 -13.0°
